Starlink 31737

operational
NORAD ID: 59537 Int'l Des: 2024-074 Owner: SPXS Country: US Constellation: starlink
LEOCIRCULAR

关于 Starlink 31737

正在加载描述...

实时位置

正在加载3D地球...

即将过境

高度历史

Altitude vs Time

uPlot chart will show altitude changes over time

两行轨道根数

1 59537U 24074D 25302.51439815 .00000478 00000-0 26879-4 0 9999
2 59537 43.0029 4.2606 0001285 273.0069 87.0635 15.27590091 85955
Epoch: Oct 29, 2025 • Age: 33 hours

当前状态

高度 486.7 km
速度 7.63 km/s
星下点 41.98°N, 66.04°E
发射日期 Apr 18, 2024
运行时间 1.5 years
类型 internet

技术详情

分类 Payload
质量 730.00 kg
干质量 700.00 kg
总质量 730.00 kg
长度 0.30 m
直径 4.10 m
跨度 29.00 m
形状 Box + pan
制造商 SPXS
平台类型 Starlink V2M
阶段状态 In Orbit
所有者/国家 SPXS/US

大型星座

Loading constellations...